owner,sensor,date,latitude,longitude,vertical_datum,sea_water_temperature,qcFlag
Enven,ioos:station:wmo:42383:2,2023-02-01T00:09:00Z,27.3704,-89.9241,27.9,22.6,11111222
Enven,ioos:station:wmo:42383:2,2023-02-01T00:29:00Z,27.3704,-89.9241,27.9,22.6,11111222
Enven,ioos:station:wmo:42383:2,2023-02-01T00:49:00Z,27.3704,-89.9241,27.9,22.6,11111222
Enven,ioos:station:wmo:42383:2,2023-02-01T01:09:00Z,27.3704,-89.9241,27.9,22.6,11111222
Enven,ioos:station:wmo:42383:2,2023-02-01T01:29:00Z,27.3704,-89.9241,27.9,22.7,11111222
Enven,ioos:station:wmo:42383:2,2023-02-01T01:49:00Z,27.3704,-89.9241,27.9,22.5,11111222
Enven,ioos:station:wmo:42383:2,2023-02-01T02:09:00Z,27.3704,-89.9241,27.9,22.6,11111222
Enven,ioos:station:wmo:42383:2,2023-02-01T02:29:00Z,27.3704,-89.9241,27.9,22.6,11111222
Enven,ioos:station:wmo:42383:2,2023-02-01T02:49:00Z,27.3704,-89.9241,27.9,22.6,11111222
Enven,ioos:station:wmo:42383:2,2023-02-01T03:09:00Z,27.3704,-89.9241,27.9,22.6,11111222
Enven,ioos:station:wmo:42383:2,2023-02-01T03:29:00Z,27.3704,-89.9241,27.9,22.5,11111222
Enven,ioos:station:wmo:42383:2,2023-02-01T03:49:00Z,27.3704,-89.9241,27.9,22.5,11111222
Enven,ioos:station:wmo:42383:2,2023-02-01T04:09:00Z,27.3704,-89.9241,27.9,22.6,11111222
Enven,ioos:station:wmo:42383:2,2023-02-01T04:29:00Z,27.3704,-89.9241,27.9,22.7,11111222
Enven,ioos:station:wmo:42383:2,2023-02-01T04:49:00Z,27.3704,-89.9241,27.9,22.5,11111222
Enven,ioos:station:wmo:42383:2,2023-02-01T05:09:00Z,27.3704,-89.9241,27.9,22.5,11111222
Enven,ioos:station:wmo:42383:2,2023-02-01T05:29:00Z,27.3704,-89.9241,27.9,22.6,11111222
Enven,ioos:station:wmo:42383:2,2023-02-01T05:49:00Z,27.3704,-89.9241,27.9,22.6,11111222
Enven,ioos:station:wmo:42383:2,2023-02-01T06:09:00Z,27.3704,-89.9241,27.9,22.7,11111222
Enven,ioos:station:wmo:42383:2,2023-02-01T06:29:00Z,27.3704,-89.9241,27.9,22.6,11111222
Enven,ioos:station:wmo:42383:2,2023-02-01T06:49:00Z,27.3704,-89.9241,27.9,22.6,11111222
Enven,ioos:station:wmo:42383:2,2023-02-01T07:09:00Z,27.3704,-89.9241,27.9,22.6,11111222
Enven,ioos:station:wmo:42383:2,2023-02-01T07:29:00Z,27.3704,-89.9241,27.9,22.6,11111222
Enven,ioos:station:wmo:42383:2,2023-02-01T07:49:00Z,27.3704,-89.9241,27.9,22.6,11111222
Enven,ioos:station:wmo:42383:2,2023-02-01T08:09:00Z,27.3704,-89.9241,27.9,22.6,11111222
Enven,ioos:station:wmo:42383:2,2023-02-01T08:29:00Z,27.3704,-89.9241,27.9,22.7,11111222
Enven,ioos:station:wmo:42383:2,2023-02-01T08:49:00Z,27.3704,-89.9241,27.9,22.6,11111222
Enven,ioos:station:wmo:42383:2,2023-02-01T09:09:00Z,27.3704,-89.9241,27.9,22.7,11111222
Enven,ioos:station:wmo:42383:2,2023-02-01T09:29:00Z,27.3704,-89.9241,27.9,22.7,11111222
Enven,ioos:station:wmo:42383:2,2023-02-01T09:49:00Z,27.3704,-89.9241,27.9,22.7,11111222
Enven,ioos:station:wmo:42383:2,2023-02-01T10:09:00Z,27.3704,-89.9241,27.9,22.7,11111222
Enven,ioos:station:wmo:42383:2,2023-02-01T10:29:00Z,27.3704,-89.9241,27.9,22.8,11111222
Enven,ioos:station:wmo:42383:2,2023-02-01T10:49:00Z,27.3704,-89.9241,27.9,22.7,11111222
Enven,ioos:station:wmo:42383:2,2023-02-01T11:09:00Z,27.3704,-89.9241,27.9,22.8,11111222
Enven,ioos:station:wmo:42383:2,2023-02-01T11:29:00Z,27.3704,-89.9241,27.9,22.6,11111222
Enven,ioos:station:wmo:42383:2,2023-02-01T11:49:00Z,27.3704,-89.9241,27.9,22.7,11111222
Enven,ioos:station:wmo:42383:2,2023-02-01T12:09:00Z,27.3704,-89.9241,27.9,22.7,11111222
Enven,ioos:station:wmo:42383:2,2023-02-01T12:29:00Z,27.3704,-89.9241,27.9,22.8,11111222
Enven,ioos:station:wmo:42383:2,2023-02-01T12:49:00Z,27.3704,-89.9241,27.9,22.8,11111222
Enven,ioos:station:wmo:42383:2,2023-02-01T13:09:00Z,27.3704,-89.9241,27.9,22.8,11111222
Enven,ioos:station:wmo:42383:2,2023-02-01T13:29:00Z,27.3704,-89.9241,27.9,22.7,11111222
Enven,ioos:station:wmo:42383:2,2023-02-01T13:49:00Z,27.3704,-89.9241,27.9,22.6,11111222
Enven,ioos:station:wmo:42383:2,2023-02-01T14:09:00Z,27.3704,-89.9241,27.9,22.6,11111222
Enven,ioos:station:wmo:42383:2,2023-02-01T14:29:00Z,27.3704,-89.9241,27.9,22.7,11111222
Enven,ioos:station:wmo:42383:2,2023-02-01T14:49:00Z,27.3704,-89.9241,27.9,22.6,11111222
Enven,ioos:station:wmo:42383:2,2023-02-01T15:09:00Z,27.3704,-89.9241,27.9,22.7,11111222
Enven,ioos:station:wmo:42383:2,2023-02-01T15:29:00Z,27.3704,-89.9241,27.9,22.6,11111222
Enven,ioos:station:wmo:42383:2,2023-02-01T15:49:00Z,27.3704,-89.9241,27.9,22.6,11111222
Enven,ioos:station:wmo:42383:2,2023-02-01T16:09:00Z,27.3704,-89.9241,27.9,22.7,11111222
Enven,ioos:station:wmo:42383:2,2023-02-01T16:29:00Z,27.3704,-89.9241,27.9,22.6,11111222
Enven,ioos:station:wmo:42383:2,2023-02-01T16:49:00Z,27.3704,-89.9241,27.9,22.6,11111222
Enven,ioos:station:wmo:42383:2,2023-02-01T17:09:00Z,27.3704,-89.9241,27.9,22.6,11111222
Enven,ioos:station:wmo:42383:2,2023-02-01T17:29:00Z,27.3704,-89.9241,27.9,22.6,11111222
Enven,ioos:station:wmo:42383:2,2023-02-01T17:49:00Z,27.3704,-89.9241,27.9,22.8,11111222
Enven,ioos:station:wmo:42383:2,2023-02-01T18:09:00Z,27.3704,-89.9241,27.9,22.7,11111222
Enven,ioos:station:wmo:42383:2,2023-02-01T18:29:00Z,27.3704,-89.9241,27.9,22.7,11111222
Enven,ioos:station:wmo:42383:2,2023-02-01T18:49:00Z,27.3704,-89.9241,27.9,22.6,11111222
Enven,ioos:station:wmo:42383:2,2023-02-01T19:09:00Z,27.3704,-89.9241,27.9,22.7,11111222
Enven,ioos:station:wmo:42383:2,2023-02-01T19:29:00Z,27.3704,-89.9241,27.9,22.7,11111222
Enven,ioos:station:wmo:42383:2,2023-02-01T19:49:00Z,27.3704,-89.9241,27.9,22.7,11111222
Enven,ioos:station:wmo:42383:2,2023-02-01T20:09:00Z,27.3704,-89.9241,27.9,22.6,11111222
Enven,ioos:station:wmo:42383:2,2023-02-01T20:29:00Z,27.3704,-89.9241,27.9,22.7,11111222
Enven,ioos:station:wmo:42383:2,2023-02-01T20:49:00Z,27.3704,-89.9241,27.9,22.6,11111222
Enven,ioos:station:wmo:42383:2,2023-02-01T21:09:00Z,27.3704,-89.9241,27.9,22.6,11111222
Enven,ioos:station:wmo:42383:2,2023-02-01T21:29:00Z,27.3704,-89.9241,27.9,22.6,11111222
Enven,ioos:station:wmo:42383:2,2023-02-01T21:49:00Z,27.3704,-89.9241,27.9,22.6,11111222
Enven,ioos:station:wmo:42383:2,2023-02-01T22:09:00Z,27.3704,-89.9241,27.9,22.6,11111222
Enven,ioos:station:wmo:42383:2,2023-02-01T22:29:00Z,27.3704,-89.9241,27.9,22.6,11111222
Enven,ioos:station:wmo:42383:2,2023-02-01T22:49:00Z,27.3704,-89.9241,27.9,22.9,11111222
Enven,ioos:station:wmo:42383:2,2023-02-01T23:09:00Z,27.3704,-89.9241,27.9,24.8,11111222
Enven,ioos:station:wmo:42383:2,2023-02-01T23:29:00Z,27.3704,-89.9241,27.9,24.6,11111222
Enven,ioos:station:wmo:42383:2,2023-02-01T23:49:00Z,27.3704,-89.9241,27.9,24.5,11111222
Enven,ioos:station:wmo:42383:2,2023-02-02T00:09:00Z,27.3704,-89.9241,27.9,25.3,11111222
Enven,ioos:station:wmo:42383:2,2023-02-02T00:29:00Z,27.3704,-89.9241,27.9,25.9,11111222
Enven,ioos:station:wmo:42383:2,2023-02-02T00:49:00Z,27.3704,-89.9241,27.9,25.8,11111222
Enven,ioos:station:wmo:42383:2,2023-02-02T01:09:00Z,27.3704,-89.9241,27.9,27.2,11111222
Enven,ioos:station:wmo:42383:2,2023-02-02T01:29:00Z,27.3704,-89.9241,27.9,26.3,11111222
Enven,ioos:station:wmo:42383:2,2023-02-02T01:49:00Z,27.3704,-89.9241,27.9,26.0,11111222
Enven,ioos:station:wmo:42383:2,2023-02-02T02:09:00Z,27.3704,-89.9241,27.9,26.6,11111222
Enven,ioos:station:wmo:42383:2,2023-02-02T02:29:00Z,27.3704,-89.9241,27.9,26.5,11111222
Enven,ioos:station:wmo:42383:2,2023-02-02T02:49:00Z,27.3704,-89.9241,27.9,27.4,11111222
Enven,ioos:station:wmo:42383:2,2023-02-02T03:09:00Z,27.3704,-89.9241,27.9,26.6,11111222
Enven,ioos:station:wmo:42383:2,2023-02-02T03:29:00Z,27.3704,-89.9241,27.9,27.5,11111222
Enven,ioos:station:wmo:42383:2,2023-02-02T03:49:00Z,27.3704,-89.9241,27.9,27.4,11111222
Enven,ioos:station:wmo:42383:2,2023-02-02T04:09:00Z,27.3704,-89.9241,27.9,28.9,11111222
Enven,ioos:station:wmo:42383:2,2023-02-02T04:29:00Z,27.3704,-89.9241,27.9,27.9,11111222
Enven,ioos:station:wmo:42383:2,2023-02-02T04:49:00Z,27.3704,-89.9241,27.9,29.1,11111222
Enven,ioos:station:wmo:42383:2,2023-02-02T05:09:00Z,27.3704,-89.9241,27.9,27.9,11111222
Enven,ioos:station:wmo:42383:2,2023-02-02T05:29:00Z,27.3704,-89.9241,27.9,27.8,11111222
Enven,ioos:station:wmo:42383:2,2023-02-02T05:49:00Z,27.3704,-89.9241,27.9,28.2,11111222
Enven,ioos:station:wmo:42383:2,2023-02-02T06:09:00Z,27.3704,-89.9241,27.9,27.6,11111222
Enven,ioos:station:wmo:42383:2,2023-02-02T06:29:00Z,27.3704,-89.9241,27.9,27.6,11111222
Enven,ioos:station:wmo:42383:2,2023-02-02T06:49:00Z,27.3704,-89.9241,27.9,27.7,11111222
Enven,ioos:station:wmo:42383:2,2023-02-02T07:09:00Z,27.3704,-89.9241,27.9,27.6,11111222
Enven,ioos:station:wmo:42383:2,2023-02-02T07:29:00Z,27.3704,-89.9241,27.9,27.9,11111222
Enven,ioos:station:wmo:42383:2,2023-02-02T07:49:00Z,27.3704,-89.9241,27.9,26.5,11111222
Enven,ioos:station:wmo:42383:2,2023-02-02T08:09:00Z,27.3704,-89.9241,27.9,27.7,11111222
Enven,ioos:station:wmo:42383:2,2023-02-02T08:29:00Z,27.3704,-89.9241,27.9,27.8,11111222
Enven,ioos:station:wmo:42383:2,2023-02-02T08:49:00Z,27.3704,-89.9241,27.9,27.9,11111222
Enven,ioos:station:wmo:42383:2,2023-02-02T09:09:00Z,27.3704,-89.9241,27.9,28.0,11111222
Enven,ioos:station:wmo:42383:2,2023-02-02T09:29:00Z,27.3704,-89.9241,27.9,27.9,11111222
Enven,ioos:station:wmo:42383:2,2023-02-02T09:49:00Z,27.3704,-89.9241,27.9,27.6,11111222
Enven,ioos:station:wmo:42383:2,2023-02-02T10:09:00Z,27.3704,-89.9241,27.9,27.8,11111222
Enven,ioos:station:wmo:42383:2,2023-02-02T10:29:00Z,27.3704,-89.9241,27.9,27.7,11111222
Enven,ioos:station:wmo:42383:2,2023-02-02T10:49:00Z,27.3704,-89.9241,27.9,28.1,11111222
Enven,ioos:station:wmo:42383:2,2023-02-02T11:09:00Z,27.3704,-89.9241,27.9,27.9,11111222
Enven,ioos:station:wmo:42383:2,2023-02-02T11:29:00Z,27.3704,-89.9241,27.9,28.3,11111222
Enven,ioos:station:wmo:42383:2,2023-02-02T11:49:00Z,27.3704,-89.9241,27.9,27.9,11111222
Enven,ioos:station:wmo:42383:2,2023-02-02T12:09:00Z,27.3704,-89.9241,27.9,28.1,11111222
Enven,ioos:station:wmo:42383:2,2023-02-02T12:29:00Z,27.3704,-89.9241,27.9,28.0,11111222
Enven,ioos:station:wmo:42383:2,2023-02-02T12:49:00Z,27.3704,-89.9241,27.9,27.9,11111222
Enven,ioos:station:wmo:42383:2,2023-02-02T13:09:00Z,27.3704,-89.9241,27.9,28.0,11111222
Enven,ioos:station:wmo:42383:2,2023-02-02T13:29:00Z,27.3704,-89.9241,27.9,28.3,11111222
Enven,ioos:station:wmo:42383:2,2023-02-02T13:49:00Z,27.3704,-89.9241,27.9,28.3,11111222
Enven,ioos:station:wmo:42383:2,2023-02-02T14:09:00Z,27.3704,-89.9241,27.9,27.9,11111222
Enven,ioos:station:wmo:42383:2,2023-02-02T14:29:00Z,27.3704,-89.9241,27.9,28.1,11111222
Enven,ioos:station:wmo:42383:2,2023-02-02T14:49:00Z,27.3704,-89.9241,27.9,27.8,11111222
Enven,ioos:station:wmo:42383:2,2023-02-02T15:09:00Z,27.3704,-89.9241,27.9,28.1,11111222
Enven,ioos:station:wmo:42383:2,2023-02-02T15:29:00Z,27.3704,-89.9241,27.9,27.9,11111222
Enven,ioos:station:wmo:42383:2,2023-02-02T15:49:00Z,27.3704,-89.9241,27.9,28.1,11111222
Enven,ioos:station:wmo:42383:2,2023-02-02T16:09:00Z,27.3704,-89.9241,27.9,28.1,11111222
Enven,ioos:station:wmo:42383:2,2023-02-02T16:29:00Z,27.3704,-89.9241,27.9,27.9,11111222
Enven,ioos:station:wmo:42383:2,2023-02-02T16:49:00Z,27.3704,-89.9241,27.9,27.8,11111222
Enven,ioos:station:wmo:42383:2,2023-02-02T17:09:00Z,27.3704,-89.9241,27.9,27.9,11111222
Enven,ioos:station:wmo:42383:2,2023-02-02T17:29:00Z,27.3704,-89.9241,27.9,27.9,11111222
Enven,ioos:station:wmo:42383:2,2023-02-02T17:49:00Z,27.3704,-89.9241,27.9,28.2,11111222
Enven,ioos:station:wmo:42383:2,2023-02-02T18:09:00Z,27.3704,-89.9241,27.9,27.7,11111222
Enven,ioos:station:wmo:42383:2,2023-02-02T18:29:00Z,27.3704,-89.9241,27.9,27.9,11111222
Enven,ioos:station:wmo:42383:2,2023-02-02T18:49:00Z,27.3704,-89.9241,27.9,28.1,11111222
Enven,ioos:station:wmo:42383:2,2023-02-02T19:09:00Z,27.3704,-89.9241,27.9,28.1,11111222
Enven,ioos:station:wmo:42383:2,2023-02-02T19:29:00Z,27.3704,-89.9241,27.9,28.2,11111222
Enven,ioos:station:wmo:42383:2,2023-02-02T19:49:00Z,27.3704,-89.9241,27.9,28.1,11111222
Enven,ioos:station:wmo:42383:2,2023-02-02T20:09:00Z,27.3704,-89.9241,27.9,27.8,11111222
Enven,ioos:station:wmo:42383:2,2023-02-02T20:29:00Z,27.3704,-89.9241,27.9,27.9,11111222
Enven,ioos:station:wmo:42383:2,2023-02-02T20:49:00Z,27.3704,-89.9241,27.9,27.9,11111222
Enven,ioos:station:wmo:42383:2,2023-02-02T21:09:00Z,27.3704,-89.9241,27.9,27.9,11111222
Enven,ioos:station:wmo:42383:2,2023-02-02T21:29:00Z,27.3704,-89.9241,27.9,28.3,11111222
Enven,ioos:station:wmo:42383:2,2023-02-02T21:49:00Z,27.3704,-89.9241,27.9,28.4,11111222
Enven,ioos:station:wmo:42383:2,2023-02-02T22:09:00Z,27.3704,-89.9241,27.9,28.5,11111222
Enven,ioos:station:wmo:42383:2,2023-02-02T22:29:00Z,27.3704,-89.9241,27.9,28.4,11111222
Enven,ioos:station:wmo:42383:2,2023-02-02T22:49:00Z,27.3704,-89.9241,27.9,28.1,11111222
Enven,ioos:station:wmo:42383:2,2023-02-02T23:09:00Z,27.3704,-89.9241,27.9,28.6,11111222
Enven,ioos:station:wmo:42383:2,2023-02-02T23:29:00Z,27.3704,-89.9241,27.9,28.8,11111222
Enven,ioos:station:wmo:42383:2,2023-02-02T23:49:00Z,27.3704,-89.9241,27.9,28.4,11111222
Enven,ioos:station:wmo:42383:2,2023-02-03T00:09:00Z,27.3704,-89.9241,27.9,28.8,11111222
Enven,ioos:station:wmo:42383:2,2023-02-03T00:29:00Z,27.3704,-89.9241,27.9,28.7,11111222
Enven,ioos:station:wmo:42383:2,2023-02-03T00:49:00Z,27.3704,-89.9241,27.9,28.8,11111222
Enven,ioos:station:wmo:42383:2,2023-02-03T01:09:00Z,27.3704,-89.9241,27.9,28.7,11111222
Enven,ioos:station:wmo:42383:2,2023-02-03T01:29:00Z,27.3704,-89.9241,27.9,28.6,11111222
Enven,ioos:station:wmo:42383:2,2023-02-03T01:49:00Z,27.3704,-89.9241,27.9,28.8,11111222
Enven,ioos:station:wmo:42383:2,2023-02-03T02:09:00Z,27.3704,-89.9241,27.9,28.7,11111222
Enven,ioos:station:wmo:42383:2,2023-02-03T02:29:00Z,27.3704,-89.9241,27.9,29.0,11111222
Enven,ioos:station:wmo:42383:2,2023-02-03T02:49:00Z,27.3704,-89.9241,27.9,29.0,11111222
Enven,ioos:station:wmo:42383:2,2023-02-03T03:09:00Z,27.3704,-89.9241,27.9,28.8,11111222
Enven,ioos:station:wmo:42383:2,2023-02-03T03:29:00Z,27.3704,-89.9241,27.9,28.4,11111222
Enven,ioos:station:wmo:42383:2,2023-02-03T03:49:00Z,27.3704,-89.9241,27.9,28.6,11111222
Enven,ioos:station:wmo:42383:2,2023-02-03T04:09:00Z,27.3704,-89.9241,27.9,28.9,11111222
Enven,ioos:station:wmo:42383:2,2023-02-03T04:29:00Z,27.3704,-89.9241,27.9,28.6,11111222
Enven,ioos:station:wmo:42383:2,2023-02-03T04:49:00Z,27.3704,-89.9241,27.9,28.6,11111222
Enven,ioos:station:wmo:42383:2,2023-02-03T05:09:00Z,27.3704,-89.9241,27.9,28.6,11111222
Enven,ioos:station:wmo:42383:2,2023-02-03T05:29:00Z,27.3704,-89.9241,27.9,28.7,11111222
Enven,ioos:station:wmo:42383:2,2023-02-03T05:49:00Z,27.3704,-89.9241,27.9,28.4,11111222
Enven,ioos:station:wmo:42383:2,2023-02-03T06:09:00Z,27.3704,-89.9241,27.9,28.7,11111222
Enven,ioos:station:wmo:42383:2,2023-02-03T06:29:00Z,27.3704,-89.9241,27.9,28.6,11111222
Enven,ioos:station:wmo:42383:2,2023-02-03T06:49:00Z,27.3704,-89.9241,27.9,28.6,11111222
Enven,ioos:station:wmo:42383:2,2023-02-03T07:09:00Z,27.3704,-89.9241,27.9,29.0,11111222
Enven,ioos:station:wmo:42383:2,2023-02-03T07:29:00Z,27.3704,-89.9241,27.9,29.0,11111222
Enven,ioos:station:wmo:42383:2,2023-02-03T07:49:00Z,27.3704,-89.9241,27.9,28.9,11111222
Enven,ioos:station:wmo:42383:2,2023-02-03T08:09:00Z,27.3704,-89.9241,27.9,28.6,11111222
Enven,ioos:station:wmo:42383:2,2023-02-03T08:29:00Z,27.3704,-89.9241,27.9,28.8,11111222
Enven,ioos:station:wmo:42383:2,2023-02-03T08:49:00Z,27.3704,-89.9241,27.9,28.6,11111222
Enven,ioos:station:wmo:42383:2,2023-02-03T09:09:00Z,27.3704,-89.9241,27.9,28.8,11111222
Enven,ioos:station:wmo:42383:2,2023-02-03T09:29:00Z,27.3704,-89.9241,27.9,28.9,11111222
Enven,ioos:station:wmo:42383:2,2023-02-03T09:49:00Z,27.3704,-89.9241,27.9,28.7,11111222
Enven,ioos:station:wmo:42383:2,2023-02-03T10:09:00Z,27.3704,-89.9241,27.9,28.7,11111222
Enven,ioos:station:wmo:42383:2,2023-02-03T10:29:00Z,27.3704,-89.9241,27.9,28.8,11111222
Enven,ioos:station:wmo:42383:2,2023-02-03T10:49:00Z,27.3704,-89.9241,27.9,28.7,11111222
Enven,ioos:station:wmo:42383:2,2023-02-03T11:09:00Z,27.3704,-89.9241,27.9,28.8,11111222
Enven,ioos:station:wmo:42383:2,2023-02-03T11:29:00Z,27.3704,-89.9241,27.9,28.4,11111222
Enven,ioos:station:wmo:42383:2,2023-02-03T11:49:00Z,27.3704,-89.9241,27.9,28.7,11111222
Enven,ioos:station:wmo:42383:2,2023-02-03T12:09:00Z,27.3704,-89.9241,27.9,28.7,11111222
Enven,ioos:station:wmo:42383:2,2023-02-03T12:29:00Z,27.3704,-89.9241,27.9,28.6,11111222
Enven,ioos:station:wmo:42383:2,2023-02-03T12:49:00Z,27.3704,-89.9241,27.9,28.5,11111222
Enven,ioos:station:wmo:42383:2,2023-02-03T13:09:00Z,27.3704,-89.9241,27.9,28.4,11111222
Enven,ioos:station:wmo:42383:2,2023-02-03T13:29:00Z,27.3704,-89.9241,27.9,28.4,11111222
Enven,ioos:station:wmo:42383:2,2023-02-03T13:49:00Z,27.3704,-89.9241,27.9,28.2,11111222
Enven,ioos:station:wmo:42383:2,2023-02-03T14:09:00Z,27.3704,-89.9241,27.9,28.1,11111222
Enven,ioos:station:wmo:42383:2,2023-02-03T14:29:00Z,27.3704,-89.9241,27.9,28.6,11111222
Enven,ioos:station:wmo:42383:2,2023-02-03T14:49:00Z,27.3704,-89.9241,27.9,28.2,11111222
Enven,ioos:station:wmo:42383:2,2023-02-03T15:09:00Z,27.3704,-89.9241,27.9,28.1,11111222
Enven,ioos:station:wmo:42383:2,2023-02-03T15:29:00Z,27.3704,-89.9241,27.9,28.3,11111222
Enven,ioos:station:wmo:42383:2,2023-02-03T15:49:00Z,27.3704,-89.9241,27.9,28.3,11111222
Enven,ioos:station:wmo:42383:2,2023-02-03T16:09:00Z,27.3704,-89.9241,27.9,28.5,11111222
Enven,ioos:station:wmo:42383:2,2023-02-03T16:29:00Z,27.3704,-89.9241,27.9,28.7,11111222
Enven,ioos:station:wmo:42383:2,2023-02-03T16:49:00Z,27.3704,-89.9241,27.9,28.9,11111222
Enven,ioos:station:wmo:42383:2,2023-02-03T17:09:00Z,27.3704,-89.9241,27.9,28.7,11111222
Enven,ioos:station:wmo:42383:2,2023-02-03T17:29:00Z,27.3704,-89.9241,27.9,28.4,11111222
Enven,ioos:station:wmo:42383:2,2023-02-03T17:49:00Z,27.3704,-89.9241,27.9,28.9,11111222
Enven,ioos:station:wmo:42383:2,2023-02-03T18:09:00Z,27.3704,-89.9241,27.9,28.9,11111222
Enven,ioos:station:wmo:42383:2,2023-02-03T18:29:00Z,27.3704,-89.9241,27.9,28.6,11111222
Enven,ioos:station:wmo:42383:2,2023-02-03T18:49:00Z,27.3704,-89.9241,27.9,29.0,11111222
Enven,ioos:station:wmo:42383:2,2023-02-03T19:09:00Z,27.3704,-89.9241,27.9,29.0,11111222
Enven,ioos:station:wmo:42383:2,2023-02-03T19:29:00Z,27.3704,-89.9241,27.9,28.9,11111222
Enven,ioos:station:wmo:42383:2,2023-02-03T19:49:00Z,27.3704,-89.9241,27.9,28.7,11111222
Enven,ioos:station:wmo:42383:2,2023-02-03T20:09:00Z,27.3704,-89.9241,27.9,28.4,11111222
Enven,ioos:station:wmo:42383:2,2023-02-03T20:29:00Z,27.3704,-89.9241,27.9,28.7,11111222
Enven,ioos:station:wmo:42383:2,2023-02-03T20:49:00Z,27.3704,-89.9241,27.9,28.5,11111222
Enven,ioos:station:wmo:42383:2,2023-02-03T21:09:00Z,27.3704,-89.9241,27.9,28.9,11111222
Enven,ioos:station:wmo:42383:2,2023-02-03T21:29:00Z,27.3704,-89.9241,27.9,28.9,11111222
Enven,ioos:station:wmo:42383:2,2023-02-03T21:49:00Z,27.3704,-89.9241,27.9,29.0,11111222
Enven,ioos:station:wmo:42383:2,2023-02-03T22:09:00Z,27.3704,-89.9241,27.9,29.1,11111222
Enven,ioos:station:wmo:42383:2,2023-02-03T22:29:00Z,27.3704,-89.9241,27.9,28.9,11111222
Enven,ioos:station:wmo:42383:2,2023-02-03T22:49:00Z,27.3704,-89.9241,27.9,29.3,11111222
Enven,ioos:station:wmo:42383:2,2023-02-03T23:09:00Z,27.3704,-89.9241,27.9,29.1,11111222
Enven,ioos:station:wmo:42383:2,2023-02-03T23:29:00Z,27.3704,-89.9241,27.9,28.7,11111222
Enven,ioos:station:wmo:42383:2,2023-02-03T23:49:00Z,27.3704,-89.9241,27.9,29.0,11111222
Enven,ioos:station:wmo:42383:2,2023-02-04T00:09:00Z,27.3704,-89.9241,27.9,29.4,11111222
Enven,ioos:station:wmo:42383:2,2023-02-04T00:29:00Z,27.3704,-89.9241,27.9,29.0,11111222
Enven,ioos:station:wmo:42383:2,2023-02-04T00:49:00Z,27.3704,-89.9241,27.9,29.3,11111222
Enven,ioos:station:wmo:42383:2,2023-02-04T01:09:00Z,27.3704,-89.9241,27.9,29.2,11111222
Enven,ioos:station:wmo:42383:2,2023-02-04T01:29:00Z,27.3704,-89.9241,27.9,29.2,11111222
Enven,ioos:station:wmo:42383:2,2023-02-04T01:49:00Z,27.3704,-89.9241,27.9,28.9,11111222
Enven,ioos:station:wmo:42383:2,2023-02-04T02:09:00Z,27.3704,-89.9241,27.9,28.8,11111222
Enven,ioos:station:wmo:42383:2,2023-02-04T02:29:00Z,27.3704,-89.9241,27.9,28.7,11111222
Enven,ioos:station:wmo:42383:2,2023-02-04T02:49:00Z,27.3704,-89.9241,27.9,28.8,11111222
Enven,ioos:station:wmo:42383:2,2023-02-04T03:09:00Z,27.3704,-89.9241,27.9,28.8,11111222
Enven,ioos:station:wmo:42383:2,2023-02-04T03:29:00Z,27.3704,-89.9241,27.9,29.0,11111222
Enven,ioos:station:wmo:42383:2,2023-02-04T03:49:00Z,27.3704,-89.9241,27.9,29.1,11111222
Enven,ioos:station:wmo:42383:2,2023-02-04T04:09:00Z,27.3704,-89.9241,27.9,29.1,11111222
Enven,ioos:station:wmo:42383:2,2023-02-04T04:29:00Z,27.3704,-89.9241,27.9,29.2,11111222
Enven,ioos:station:wmo:42383:2,2023-02-04T04:49:00Z,27.3704,-89.9241,27.9,29.3,11111222
Enven,ioos:station:wmo:42383:2,2023-02-04T05:09:00Z,27.3704,-89.9241,27.9,28.7,11111222
Enven,ioos:station:wmo:42383:2,2023-02-04T05:29:00Z,27.3704,-89.9241,27.9,28.7,11111222
Enven,ioos:station:wmo:42383:2,2023-02-04T05:49:00Z,27.3704,-89.9241,27.9,28.9,11111222
Enven,ioos:station:wmo:42383:2,2023-02-04T06:09:00Z,27.3704,-89.9241,27.9,29.0,11111222
Enven,ioos:station:wmo:42383:2,2023-02-04T06:29:00Z,27.3704,-89.9241,27.9,29.1,11111222
Enven,ioos:station:wmo:42383:2,2023-02-04T06:49:00Z,27.3704,-89.9241,27.9,28.9,11111222
Enven,ioos:station:wmo:42383:2,2023-02-04T07:09:00Z,27.3704,-89.9241,27.9,29.4,11111222
Enven,ioos:station:wmo:42383:2,2023-02-04T07:29:00Z,27.3704,-89.9241,27.9,29.4,11111222
Enven,ioos:station:wmo:42383:2,2023-02-04T07:49:00Z,27.3704,-89.9241,27.9,28.9,11111222
Enven,ioos:station:wmo:42383:2,2023-02-04T08:09:00Z,27.3704,-89.9241,27.9,28.5,11111222
Enven,ioos:station:wmo:42383:2,2023-02-04T08:29:00Z,27.3704,-89.9241,27.9,28.7,11111222
Enven,ioos:station:wmo:42383:2,2023-02-04T08:49:00Z,27.3704,-89.9241,27.9,28.5,11111222
Enven,ioos:station:wmo:42383:2,2023-02-04T09:09:00Z,27.3704,-89.9241,27.9,28.7,11111222
Enven,ioos:station:wmo:42383:2,2023-02-04T09:29:00Z,27.3704,-89.9241,27.9,28.9,11111222
Enven,ioos:station:wmo:42383:2,2023-02-04T09:49:00Z,27.3704,-89.9241,27.9,28.7,11111222
Enven,ioos:station:wmo:42383:2,2023-02-04T10:09:00Z,27.3704,-89.9241,27.9,28.9,11111222
Enven,ioos:station:wmo:42383:2,2023-02-04T10:29:00Z,27.3704,-89.9241,27.9,28.7,11111222
Enven,ioos:station:wmo:42383:2,2023-02-04T10:49:00Z,27.3704,-89.9241,27.9,28.8,11111222
Enven,ioos:station:wmo:42383:2,2023-02-04T11:09:00Z,27.3704,-89.9241,27.9,28.6,11111222
Enven,ioos:station:wmo:42383:2,2023-02-04T11:29:00Z,27.3704,-89.9241,27.9,28.7,11111222
Enven,ioos:station:wmo:42383:2,2023-02-04T11:49:00Z,27.3704,-89.9241,27.9,28.9,11111222
Enven,ioos:station:wmo:42383:2,2023-02-04T12:09:00Z,27.3704,-89.9241,27.9,29.2,11111222
Enven,ioos:station:wmo:42383:2,2023-02-04T12:29:00Z,27.3704,-89.9241,27.9,28.8,11111222
Enven,ioos:station:wmo:42383:2,2023-02-04T12:49:00Z,27.3704,-89.9241,27.9,28.9,11111222
Enven,ioos:station:wmo:42383:2,2023-02-04T13:09:00Z,27.3704,-89.9241,27.9,28.8,11111222
Enven,ioos:station:wmo:42383:2,2023-02-04T13:29:00Z,27.3704,-89.9241,27.9,29.1,11111222
Enven,ioos:station:wmo:42383:2,2023-02-04T13:49:00Z,27.3704,-89.9241,27.9,28.9,11111222
Enven,ioos:station:wmo:42383:2,2023-02-04T14:09:00Z,27.3704,-89.9241,27.9,29.0,11111222
Enven,ioos:station:wmo:42383:2,2023-02-04T14:29:00Z,27.3704,-89.9241,27.9,29.0,11111222
Enven,ioos:station:wmo:42383:2,2023-02-04T14:49:00Z,27.3704,-89.9241,27.9,28.9,11111222
Enven,ioos:station:wmo:42383:2,2023-02-04T15:09:00Z,27.3704,-89.9241,27.9,28.9,11111222
Enven,ioos:station:wmo:42383:2,2023-02-04T15:29:00Z,27.3704,-89.9241,27.9,28.9,11111222
Enven,ioos:station:wmo:42383:2,2023-02-04T15:49:00Z,27.3704,-89.9241,27.9,28.9,11111222
Enven,ioos:station:wmo:42383:2,2023-02-04T16:09:00Z,27.3704,-89.9241,27.9,28.7,11111222
Enven,ioos:station:wmo:42383:2,2023-02-04T16:29:00Z,27.3704,-89.9241,27.9,28.7,11111222
Enven,ioos:station:wmo:42383:2,2023-02-04T16:49:00Z,27.3704,-89.9241,27.9,29.2,11111222
Enven,ioos:station:wmo:42383:2,2023-02-04T17:09:00Z,27.3704,-89.9241,27.9,28.9,11111222